Regional Weather Roundup
Issued by NWS

Home | Current Version | Previous Version | Text Only | Print | Product List | Glossary On
Versions: 1 2 3 4 5 6 7 8 9 10 11 12 13 14 15 16 17 18 19 20 21 22 23 24 25 26 27 28 29 30 31 32 33 34 35 36 37 38 39 40 41 42 43 44 45 46 47 48 49 50
577
ASUS42 KTBW 111717
RWRFL
FLORIDA REGIONAL WEATHER ROUNDUP
NATIONAL WEATHER SERVICE TAMPA BAY RUSKIN FL
1200 PM EST THU FEB 11 2016

NOTE: "FAIR" INDICATES FEW OR NO CLOUDS BELOW 12,000 FEET WITH NO
SIGNIFICANT WEATHER AND/OR OBSTRUCTIONS TO VISIBILITY.


FLZ001>010-012>015-112-114-115-111800-
PANHANDLE FLORIDA

CITY           SKY/WX    TMP DP  RH WIND       PRES   REMARKS
PENSACOLA      SUNNY     68  48  48 W17G28    30.22F
PENSACOLA NAS  MOSUNNY   67  50  54 SW12G21   30.23F
MILTON NAS     SUNNY     67  46  47 SW14G23   30.22
CRESTVIEW      SUNNY     67  44  43 SW14      30.23F
DUKE FIELD     SUNNY     67  44  42 SW14G20   30.20F
VALPARAISO     SUNNY     65  47  53 SW16      30.23F
MARY ESTHER    SUNNY     65  48  54 SW12G18   30.23F
TRI COUNTY     FAIR      63  42  46 SW12G21   30.22F
PANAMA CITY    FAIR      65  49  56 SW13G22   30.23F
TYNDALL AFB    SUNNY     64  52  66 SW7       30.26F
APALACHICOLA   SUNNY     63  51  65 VRB7      30.27F

STATION/POSITION SKY/WX   TEMP    WIND        PRES    WAVE   SWELL
                          AIR SEA DIR/SP/G            HT/PER HT/PER
                          (F)     (DEG/KT/KT) (MB)    (FT/S) (FT/S)
30.1N   87.6W              62 64  240/ 17/ 19 1023.5F   3/ 5
28.8N   86.0W              65 69  270/ 10/ 12 1025.9F   3/ 6   3/ 6
PANAMA CITY BEAC              56  140/  8/  9 1025.0F
CAPE SAN BLAS    NOT AVBL
TOWER C          NOT AVBL
28.5N   84.5W              64 67  250/  4/  6 1026.2F   3/ 7   2/ 7

$$
FLZ011-016>038-118-127-128-134-139-239-111800-
NORTH FLORIDA

CITY           SKY/WX    TMP DP  RH WIND       PRES   REMARKS
MARIANNA         N/A     65  41  41 SW14      30.22F
TALLAHASSEE    MOSUNNY   66  42  41 SW9       30.25F
PERRY          SUNNY     63  45  52 SW10G17   30.28F
LIVE OAK         N/A     64  43  45 SW8       30.29F
CROSS CITY       N/A     64  44  48 SW8       30.29F
LAKE CITY      FAIR      59  41  51 W12       30.27F
GAINESVILLE    SUNNY     61  40  45 VRB7      30.29F
WILLISTON      FAIR      64  39  39 SW3       30.30F
KEYSTONE HEIGH FAIR      61  32  33 SW5       30.29F
PALATKA        FAIR      59  28  31 W5        30.31F
MAYPORT NAS    SUNNY     57  31  37 W8        30.27F
JACKSONVILLE   SUNNY     60  33  36 W9G20     30.26F
JAX NAS        SUNNY     57  29  34 S9        30.28F
JAX CRAIG      SUNNY     58  32  37 W9        30.28F
JAX CECIL      SUNNY     59  34  38 W6G17     30.28F
FERNANDINA BEA FAIR      61  28  29 W9        30.25F
ST AUGUSTINE   SUNNY     59  28  30 VRB7      30.29F
PALM COAST     SUNNY     59  28  31 W7        30.31F

STATION/POSITION SKY/WX   TEMP    WIND        PRES    WAVE   SWELL
                          AIR SEA DIR/SP/G            HT/PER HT/PER
                          (F)     (DEG/KT/KT) (MB)    (FT/S) (FT/S)
SHELL POINT                55     120/  3/  5 1024.7
KEATON BEACH               52     180/ 12/ 13 1025.3F
CEDAR KEY                  51     150/  6/  7 1026.7F
FERNANDINA                    54  300/  1/  3 1025.5F
30.7N   81.3W                 56                N/A     1/14   2/14
MAYPORT                       55  270/  8/ 11 1025.7F
31.4N   80.9W              47 53  200/  4/  6 1025.2F   1/15
ST AUGUSTINE               53 56  130/  9/ 11 1026.4F

$$
FLZ040-043>046-052-053-057-058-063-144-111800-
INTERIOR CENTRAL FLORIDA

CITY           SKY/WX    TMP DP  RH WIND       PRES   REMARKS
OCALA          SUNNY     61  32  33 W5        30.31F
THE VILLAGES     N/A     63  32  31 CALM      30.22F
LEESBURG       SUNNY     60  27  28 CALM      30.33F
SANFORD        SUNNY     59  26  28 N6        30.32F
ORLANDO EXEC   SUNNY     61  26  26 NW6       30.32F
ORLANDO INTL   SUNNY     59  23  25 N7        30.33F
KISSIMMEE      SUNNY     61  27  27 N7        30.33F
WINTER HAVEN   SUNNY     61  30  31 NW3       30.34F
LAKELAND       SUNNY     61  36  39 NE3       30.33F
BARTOW         SUNNY     57  28  33 CALM      30.34F
OKEECHOBEE     SUNNY     61  32  33 NW5       30.35F

$$
FLZ041-047-054-059-064-141-147-111800-
EAST CENTRAL FLORIDA

CITY           SKY/WX    TMP DP  RH WIND       PRES   REMARKS
ORMOND BEACH   SUNNY     57  28  33 CALM      30.31F
DAYTONA BEACH  SUNNY     60  28  29 VRB5      30.31F
DELAND           N/A     57  28  33 W3        30.32F
NEW SMYRNA BEA SUNNY     59  27  29 N9        30.31F
JFK SPACE CTR  SUNNY     59  30  33 N6        30.31F
TITUSVILLE     SUNNY     57  21  24 E6        30.33F
CAPE CANAVERAL SUNNY     59  30  33 NW10      30.31F
PATRICK AFB    SUNNY     58  25  28 VRB5      30.33F
MELBOURNE      SUNNY     61  27  27 N9        30.33F
VERO BEACH     SUNNY     60  25  26 N9        30.34F
FT PIERCE      SUNNY     60  32  34 VRB6      30.33F
STUART         MOSUNNY   63  36  36 N9        30.35F

STATION/POSITION SKY/WX   TEMP    WIND        PRES    WAVE   SWELL
                          AIR SEA DIR/SP/G            HT/PER HT/PER
                          (F)     (DEG/KT/KT) (MB)    (FT/S) (FT/S)
28.5N   80.2W              57 71  330/ 14/ 17 1026.8F
28.9N   78.5W              60 72              1025.8F
TRIDENT PIER                  62  320/  5/  6 1027.0F
28.4N   80.5W                 63                N/A     2/13
27.5N   80.2W                 69                N/A     4/14   2/14

$$
FLZ050-056-061-142-242-148-248-149-249-151-251-155-255-
160-260-111800-
WEST CENTRAL FLORIDA

CITY           SKY/WX    TMP DP  RH WIND       PRES   REMARKS
CRYSTAL RIVER  FAIR      61  37  41 CALM      30.31F
INVERNESS      FAIR      61  39  44 E5        30.32F HAZE
BROOKSVILLE    SUNNY     62  37  39 CALM      30.33F
ZEPHYRHILLS    FAIR      63  31  29 W3        30.32F
CLEARWATER AIR FAIR      57  41  54 S6        30.33F
ST PETE CLEARW SUNNY     59  41  51 NE3       30.33F
TAMPA INTL     SUNNY     61  38  42 VRB3      30.33F
TAMPA EXEC     SUNNY     63  37  39 CALM      30.33F
PLANT CITY     SUNNY     63  41  45 CALM      30.34F
MACDILL AFB    SUNNY     63  42  46 VRB3      30.32F
PETER O KNIGHT SUNNY     64  43  45 E3        30.33F
ST PETERSBURG  SUNNY     53  41  63 SE6       30.33F HAZE
SARASOTA       SUNNY     62  43  49 CALM      30.32F
VENICE         FAIR      63  45  51 NE8       30.34F

STATION/POSITION SKY/WX   TEMP    WIND        PRES    WAVE   SWELL
                          AIR SEA DIR/SP/G            HT/PER HT/PER
                          (F)     (DEG/KT/KT) (MB)    (FT/S) (FT/S)
CEDAR KEY                  51     150/  6/  7 1026.7F
28.5N   84.5W              64 67  250/  4/  6 1026.2F   3/ 7   2/ 7
27.3N   84.2W                 70                N/A     3/ 6
CLEARWATER BEACH              55  110/  4/  5 1027.4F
MIDDLE TAMPA BAY                   70/  6/  8 1028.0S
VENICE                     60 60  340/  4/  5 1026.7F

$$
FLZ066-069-070-075>078-162-262-165-265-111800-
SOUTHWEST FLORIDA AND KEYS

CITY           SKY/WX    TMP DP  RH WIND       PRES   REMARKS
PUNTA GORDA    SUNNY     60  45  57 E6        30.35F
FT MYERS       SUNNY     61  41  47 NE8       30.33F
SOUTHWEST INTL SUNNY     64  39  39 NE8       30.33F
NAPLES         SUNNY     64  39  39 NE9       30.33F
MARCO ISLAND   SUNNY     63  41  45 NE6       30.33F
MARATHON       MOSUNNY   60  44  55 NE13      30.32F
KEY WEST NAS   PTSUNNY   62  49  62 NE13      30.32F
KEY WEST INTL  MOSUNNY   62  51  67 NE14      30.32F

STATION/POSITION SKY/WX   TEMP    WIND        PRES    WAVE   SWELL
                          AIR SEA DIR/SP/G            HT/PER HT/PER
                          (F)     (DEG/KT/KT) (MB)    (FT/S) (FT/S)
VENICE                     60 60  340/  4/  5 1026.7F
NAPLES                        62              1027.1F
26.0N   85.6W              66 79   30/  6/ 10 1027.4F   3/ 7   3/ 7
DRY TORTUGAS     NOT AVBL
SAND KEY                   59      50/ 15/ 19 1027.2F
LONG KEY                   57 63   10/ 11/ 13 1027.4F
MOLASSES REEF              58 74   20/ 13/ 16 1026.6F

$$
FLZ067-068-071>074-168-172>174-111800-
SOUTHEAST FLORIDA

CITY           SKY/WX    TMP DP  RH WIND       PRES   REMARKS
W PALM BEACH   PTSUNNY   65  25  22 N7        30.33F
BOCA RATON     SUNNY    N/A N/A N/A N8        30.33F
FT LAUDER-EXEC CLOUDY    62  27  26 N8        30.33F
FT LAUDERDALE  PTSUNNY   64  32  30 N9        30.32F
POMPANO BEACH  MOSUNNY   63  29  27 N9        30.33F
PEMBROKE PINES MOSUNNY   64  28  25 N9        30.34F
OPA LOCKA      MOSUNNY   64  31  28 N7        30.33F
MIAMI          PTSUNNY   60  33  36 N7        30.33F
WEST KENDALL   PTSUNNY   60  40  47 N8        30.33F
HOMESTEAD      PTSUNNY   63  31  30 N15       30.32F

STATION/POSITION SKY/WX   TEMP    WIND        PRES    WAVE   SWELL
         C1F1M1C2F2M2C3F3C4F4M3C5F5M4C6F6M5C7F7M6C8!



USA.gov is the U.S. government's official web portal to all federal, state and local government web resources and services.